| time (UTC) | temp C | wind direction | speed KPH | gust KPH | rain 1hr cm | rain 24hr cm | rain mn cm | humidity % | barometer mb |
| 20260507000438 | 19 | 197 | 0.0 | 0.0 | 0.00 | 0.15 | 0.15 | 81 | 1007.1 |
| 20260506235934 | 19 | 201 | 0.0 | 0.0 | 0.00 | 0.15 | 0.15 | 80 | 1007.1 |
| 20260506235432 | 19 | 214 | 0.0 | 0.0 | 0.00 | 0.15 | 0.15 | 80 | 1007.2 |
| 20260506234927 | 19 | 206 | 0.0 | 0.0 | 0.00 | 0.15 | 0.15 | 80 | 1007.3 |
| 20260506234425 | 19 | 188 | 0.0 | 0.0 | 0.00 | 0.15 | 0.15 | 80 | 1007.1 |
| 20260506233923 | 19 | 207 | 0.0 | 0.0 | 0.00 | 0.15 | 0.15 | 80 | 1006.9 |
| 20260506233419 | 19 | 202 | 0.0 | 0.0 | 0.00 | 0.15 | 0.15 | 79 | 1006.9 |
| 20260506232916 | 19 | 199 | 0.0 | 0.0 | 0.00 | 0.15 | 0.15 | 79 | 1007.2 |
| 20260506232412 | 19 | 214 | 0.0 | 0.0 | 0.00 | 0.15 | 0.15 | 79 | 1007.1 |
| 20260506231908 | 19 | 309 | 1.6 | 3.2 | 0.00 | 0.15 | 0.15 | 79 | 1007.2 |
| 20260506231406 | 19 | 208 | 0.0 | 0.0 | 0.00 | 0.15 | 0.15 | 79 | 1007.2 |
| 20260506230903 | 19 | 209 | 0.0 | 0.0 | 0.00 | 0.15 | 0.15 | 79 | 1007.1 |
| 20260506230359 | 20 | 238 | 1.6 | 1.6 | 0.00 | 0.15 | 0.15 | 79 | 1006.8 |
| 20260506225855 | 19 | 221 | 1.6 | 1.6 | 0.00 | 0.15 | 0.15 | 80 | 1006.9 |
| 20260506225353 | 19 | 210 | 0.0 | 0.0 | 0.00 | 0.15 | 0.15 | 79 | 1007.0 |
| 20260506224850 | 19 | 212 | 1.6 | 1.6 | 0.00 | 0.15 | 0.15 | 80 | 1007.0 |
| 20260506224347 | 19 | 209 | 3.2 | 3.2 | 0.00 | 0.15 | 0.15 | 80 | 1006.6 |
| 20260506223843 | 19 | 210 | 0.0 | 1.6 | 0.00 | 0.15 | 0.15 | 80 | 1006.7 |
| 20260506223338 | 19 | 201 | 1.6 | 1.6 | 0.00 | 0.15 | 0.15 | 80 | 1006.8 |
| 20260506222836 | 19 | 223 | 0.0 | 0.0 | 0.00 | 0.15 | 0.15 | 80 | 1006.9 |
| 20260506222332 | 18 | 211 | 0.0 | 0.0 | 0.00 | 0.15 | 0.15 | 80 | 1006.9 |
| 20260506221830 | 18 | 254 | 3.2 | 3.2 | 0.00 | 0.15 | 0.15 | 80 | 1006.9 |
| 20260506221327 | 18 | 191 | 0.0 | 1.6 | 0.00 | 0.15 | 0.15 | 81 | 1006.9 |
| 20260506220825 | 18 | 231 | 1.6 | 1.6 | 0.00 | 0.15 | 0.15 | 80 | 1006.9 |
| 20260506220320 | 18 | 272 | 4.8 | 4.8 | 0.00 | 0.15 | 0.15 | 80 | 1006.8 |
| 20260506215817 | 18 | 230 | 0.0 | 1.6 | 0.00 | 0.15 | 0.15 | 81 | 1006.5 |
| 20260506215313 | 18 | 225 | 1.6 | 1.6 | 0.00 | 0.15 | 0.15 | 81 | 1006.7 |
| 20260506214809 | 18 | 193 | 0.0 | 0.0 | 0.00 | 0.15 | 0.15 | 81 | 1006.9 |
| 20260506214306 | 18 | 175 | 1.6 | 1.6 | 0.00 | 0.15 | 0.15 | 81 | 1006.7 |
| 20260506213804 | 18 | 180 | 1.6 | 3.2 | 0.00 | 0.15 | 0.15 | 81 | 1006.5 |
| 20260506213301 | 18 | 271 | 3.2 | 3.2 | 0.00 | 0.15 | 0.15 | 81 | 1006.8 |
| 20260506212758 | 18 | 255 | 1.6 | 3.2 | 0.00 | 0.15 | 0.15 | 81 | 1006.5 |
| 20260506212254 | 18 | 192 | 0.0 | 0.0 | 0.00 | 0.15 | 0.15 | 81 | 1006.7 |
| 20260506211749 | 18 | 212 | 4.8 | 8.0 | 0.00 | 0.15 | 0.15 | 81 | 1006.7 |
| 20260506211246 | 18 | 131 | 1.6 | 3.2 | 0.00 | 0.15 | 0.15 | 81 | 1006.7 |
| 20260506210743 | 18 | 345 | 6.4 | 9.7 | 0.00 | 0.15 | 0.15 | 81 | 1006.5 |
| 20260506210239 | 18 | 194 | 4.8 | 4.8 | 0.00 | 0.15 | 0.15 | 81 | 1006.4 |
| 20260506205736 | 18 | 211 | 0.0 | 1.6 | 0.00 | 0.15 | 0.15 | 81 | 1006.5 |
| 20260506205232 | 18 | 199 | 0.0 | 1.6 | 0.00 | 0.15 | 0.15 | 81 | 1006.3 |
| 20260506204729 | 18 | 212 | 4.8 | 4.8 | 0.00 | 0.15 | 0.15 | 81 | 1006.4 |
| 20260506204227 | 18 | 196 | 6.4 | 8.0 | 0.00 | 0.15 | 0.15 | 82 | 1006.2 |
| 20260506203724 | 18 | 266 | 4.8 | 4.8 | 0.00 | 0.15 | 0.15 | 83 | 1006.1 |
| 20260506203221 | 18 | 203 | 1.6 | 3.2 | 0.00 | 0.15 | 0.15 | 84 | 1006.3 |
| 20260506202719 | 18 | 186 | 1.6 | 1.6 | 0.00 | 0.15 | 0.15 | 84 | 1006.2 |
| 20260506202215 | 18 | 169 | 1.6 | 3.2 | 0.00 | 0.15 | 0.15 | 85 | 1006.3 |
| 20260506201712 | 18 | 196 | 0.0 | 0.0 | 0.00 | 0.15 | 0.15 | 86 | 1006.3 |
| 20260506201208 | 17 | 269 | 6.4 | 12.9 | 0.00 | 0.15 | 0.15 | 86 | 1006.1 |
| 20260506200700 | 17 | 202 | 0.0 | 0.0 | 0.00 | 0.15 | 0.15 | 87 | 1006.3 |
| 20260506200157 | 17 | 217 | 1.6 | 3.2 | 0.00 | 0.15 | 0.15 | 87 | 1006.5 |
| 20260506195653 | 17 | 253 | 3.2 | 3.2 | 0.00 | 0.15 | 0.15 | 87 | 1006.5 |
| 20260506195149 | 17 | 205 | 0.0 | 0.0 | 0.00 | 0.15 | 0.15 | 87 | 1006.4 |
| 20260506194647 | 17 | 305 | 4.8 | 8.0 | 0.00 | 0.15 | 0.15 | 87 | 1006.6 |
| 20260506194143 | 17 | 274 | 6.4 | 11.3 | 0.00 | 0.15 | 0.15 | 87 | 1006.8 |
| 20260506193641 | 17 | 182 | 1.6 | 1.6 | 0.00 | 0.15 | 0.15 | 87 | 1006.9 |
| 20260506193138 | 17 | 200 | 0.0 | 1.6 | 0.00 | 0.15 | 0.15 | 86 | 1007.0 |
| 20260506192634 | 17 | 304 | 14.5 | 20.9 | 0.00 | 0.15 | 0.15 | 85 | 1007.1 |
| 20260506192130 | 17 | 226 | 3.2 | 4.8 | 0.00 | 0.15 | 0.15 | 87 | 1007.0 |
| 20260506191628 | 17 | 271 | 3.2 | 4.8 | 0.00 | 0.15 | 0.15 | 89 | 1007.0 |
| 20260506191123 | 17 | 217 | 0.0 | 1.6 | 0.00 | 0.15 | 0.15 | 89 | 1007.0 |
| 20260506190621 | 17 | 236 | 1.6 | 3.2 | 0.00 | 0.15 | 0.15 | 90 | 1007.3 |
| 20260506190118 | 17 | 251 | 0.0 | 1.6 | 0.00 | 0.15 | 0.15 | 90 | 1007.0 |
| 20260506185615 | 17 | 169 | 3.2 | 4.8 | 0.00 | 0.15 | 0.15 | 90 | 1007.2 |
| 20260506185111 | 17 | 208 | 1.6 | 1.6 | 0.00 | 0.15 | 0.15 | 89 | 1007.1 |
| 20260506184609 | 17 | 225 | 1.6 | 1.6 | 0.00 | 0.15 | 0.15 | 89 | 1007.3 |
| 20260506184106 | 17 | 233 | 3.2 | 3.2 | 0.00 | 0.15 | 0.15 | 89 | 1007.2 |
| 20260506183603 | 17 | 220 | 4.8 | 8.0 | 0.00 | 0.15 | 0.15 | 88 | 1007.3 |
| 20260506183058 | 17 | 210 | 1.6 | 1.6 | 0.00 | 0.15 | 0.15 | 88 | 1007.2 |
| 20260506182556 | 17 | 183 | 8.0 | 14.5 | 0.00 | 0.15 | 0.15 | 87 | 1007.3 |
| 20260506182053 | 17 | 201 | 3.2 | 3.2 | 0.00 | 0.15 | 0.15 | 86 | 1007.3 |
| 20260506181551 | 17 | 203 | 3.2 | 4.8 | 0.00 | 0.15 | 0.15 | 84 | 1007.3 |
| 20260506181047 | 18 | 260 | 8.0 | 12.9 | 0.00 | 0.15 | 0.15 | 82 | 1007.4 |
| 20260506180544 | 18 | 173 | 4.8 | 8.0 | 0.00 | 0.15 | 0.15 | 81 | 1007.2 |
| 20260506180041 | 18 | 249 | 1.6 | 3.2 | 0.00 | 0.15 | 0.15 | 83 | 1007.5 |
| 20260506175537 | 18 | 274 | 1.6 | 3.2 | 0.00 | 0.15 | 0.15 | 86 | 1007.5 |
| 20260506175033 | 18 | 211 | 0.0 | 0.0 | 0.00 | 0.15 | 0.15 | 86 | 1007.5 |
| 20260506174532 | 18 | 262 | 0.0 | 0.0 | 0.00 | 0.15 | 0.15 | 86 | 1007.5 |
| 20260506174028 | 18 | 209 | 0.0 | 1.6 | 0.00 | 0.15 | 0.15 | 86 | 1007.4 |
| 20260506173526 | 18 | 234 | 3.2 | 3.2 | 0.00 | 0.15 | 0.15 | 86 | 1007.5 |
| 20260506173022 | 18 | 198 | 0.0 | 1.6 | 0.00 | 0.15 | 0.15 | 85 | 1007.2 |
| 20260506172520 | 18 | 198 | 1.6 | 1.6 | 0.00 | 0.15 | 0.15 | 86 | 1007.3 |
| 20260506172016 | 18 | 203 | 3.2 | 3.2 | 0.00 | 0.15 | 0.15 | 86 | 1007.2 |
| 20260506171513 | 17 | 168 | 0.0 | 1.6 | 0.13 | 0.15 | 0.15 | 88 | 1007.4 |
| 20260506171010 | 17 | 183 | 3.2 | 3.2 | 0.13 | 0.15 | 0.15 | 88 | 1007.4 |
| 20260506170507 | 17 | 190 | 4.8 | 4.8 | 0.00 | 0.13 | 0.13 | 88 | 1007.6 |
| 20260506170000 | 17 | 192 | 3.2 | 3.2 | 0.00 | 0.13 | 0.13 | 88 | 1007.4 |
| 20260506165458 | 17 | 199 | 0.0 | 1.6 | 0.00 | 0.13 | 0.13 | 88 | 1007.9 |
| 20260506164954 | 17 | 182 | 4.8 | 8.0 | 0.18 | 0.13 | 0.13 | 87 | 1007.9 |
| 20260506164451 | 17 | 193 | 0.0 | 0.0 | 0.18 | 0.13 | 0.13 | 88 | 1008.3 |
| 20260506163949 | 17 | 185 | 1.6 | 3.2 | 0.00 | 0.10 | 0.10 | 87 | 1008.6 |
| 20260506163443 | 17 | 198 | 0.0 | 1.6 | 0.13 | 0.10 | 0.10 | 87 | 1008.6 |
| 20260506162938 | 17 | 185 | 1.6 | 3.2 | 0.13 | 0.10 | 0.10 | 87 | 1008.8 |
| 20260506162436 | 17 | 203 | 0.0 | 0.0 | 0.00 | 0.08 | 0.08 | 86 | 1008.6 |
| 20260506161933 | 17 | 174 | 1.6 | 1.6 | 0.18 | 0.08 | 0.08 | 85 | 1009.0 |
| 20260506161431 | 17 | 208 | 0.0 | 0.0 | 0.36 | 0.08 | 0.08 | 84 | 1008.7 |
| 20260506160923 | 17 | 174 | 1.6 | 1.6 | 0.18 | 0.05 | 0.05 | 83 | 1009.0 |
| 20260506160420 | 18 | 227 | 1.6 | 3.2 | 0.30 | 0.05 | 0.05 | 81 | 1009.2 |
| 20260506155918 | 18 | 197 | 0.0 | 0.0 | 0.13 | 0.03 | 0.03 | 79 | 1008.9 |
| 20260506155414 | 19 | 223 | 1.6 | 1.6 | 0.00 | 0.00 | 0.00 | 77 | 1008.9 |
| 20260506153537 | 20 | 204 | 1.6 | 3.2 | 0.00 | 0.00 | 0.00 | 69 | 1008.7 |
| 20260506153034 | 20 | 211 | 3.2 | 3.2 | 0.00 | 0.00 | 0.00 | 68 | 1009.0 |
| 20260506152531 | 20 | 198 | 4.8 | 8.0 | 0.00 | 0.00 | 0.00 | 66 | 1008.9 |
| 20260506152029 | 20 | 287 | 3.2 | 4.8 | 0.00 | 0.00 | 0.00 | 67 | 1008.8 |
| 20260506151527 | 20 | 252 | 1.6 | 3.2 | 0.00 | 0.00 | 0.00 | 67 | 1008.7 |
| 20260506151024 | 20 | 197 | 0.0 | 1.6 | 0.00 | 0.00 | 0.00 | 67 | 1008.8 |
| 20260506150520 | 20 | 147 | 3.2 | 4.8 | 0.00 | 0.00 | 0.00 | 65 | 1009.2 |
| 20260506150017 | 20 | 317 | 3.2 | 3.2 | 0.00 | 0.00 | 0.00 | 65 | 1008.9 |
| 20260506145514 | 20 | 142 | 1.6 | 3.2 | 0.00 | 0.00 | 0.00 | 65 | 1009.1 |
| 20260506145011 | 20 | 253 | 4.8 | 8.0 | 0.00 | 0.00 | 0.00 | 64 | 1009.1 |
| 20260506144508 | 20 | 151 | 4.8 | 8.0 | 0.00 | 0.00 | 0.00 | 65 | 1009.1 |
| 20260506144005 | 21 | 217 | 1.6 | 1.6 | 0.00 | 0.00 | 0.00 | 65 | 1009.1 |
| 20260506143503 | 21 | 194 | 1.6 | 3.2 | 0.00 | 0.00 | 0.00 | 64 | 1009.1 |
| 20260506143001 | 21 | 280 | 8.0 | 11.3 | 0.00 | 0.00 | 0.00 | 64 | 1009.2 |
| 20260506142458 | 21 | 254 | 9.7 | 12.9 | 0.00 | 0.00 | 0.00 | 64 | 1009.1 |
| 20260506141956 | 21 | 242 | 3.2 | 3.2 | 0.00 | 0.00 | 0.00 | 65 | 1008.8 |
| 20260506141454 | 21 | 220 | 1.6 | 1.6 | 0.00 | 0.00 | 0.00 | 66 | 1008.8 |
| 20260506140952 | 20 | 208 | 1.6 | 3.2 | 0.00 | 0.00 | 0.00 | 66 | 1008.9 |
| 20260506140449 | 20 | 239 | 3.2 | 3.2 | 0.00 | 0.00 | 0.00 | 66 | 1008.8 |
| 20260506135945 | 20 | 312 | 1.6 | 3.2 | 0.00 | 0.00 | 0.00 | 66 | 1008.7 |
| 20260506135443 | 20 | 227 | 8.0 | 11.3 | 0.00 | 0.00 | 0.00 | 65 | 1008.9 |
| 20260506134938 | 20 | 196 | 3.2 | 4.8 | 0.00 | 0.00 | 0.00 | 66 | 1009.1 |
| 20260506134435 | 20 | 260 | 6.4 | 11.3 | 0.00 | 0.00 | 0.00 | 65 | 1008.6 |
| 20260506133932 | 20 | 187 | 3.2 | 3.2 | 0.00 | 0.00 | 0.00 | 66 | 1008.9 |
| 20260506133429 | 20 | 266 | 1.6 | 3.2 | 0.00 | 0.00 | 0.00 | 66 | 1009.3 |
| 20260506132926 | 20 | 218 | 4.8 | 8.0 | 0.00 | 0.00 | 0.00 | 66 | 1009.1 |
| 20260506132423 | 20 | 158 | 9.7 | 11.3 | 0.00 | 0.00 | 0.00 | 65 | 1009.1 |
| 20260506131920 | 20 | 199 | 4.8 | 9.7 | 0.00 | 0.00 | 0.00 | 66 | 1009.4 |
| 20260506131417 | 20 | 197 | 1.6 | 1.6 | 0.00 | 0.00 | 0.00 | 67 | 1009.1 |
| 20260506130914 | 20 | 197 | 6.4 | 8.0 | 0.00 | 0.00 | 0.00 | 68 | 1009.0 |
| 20260506130410 | 20 | 220 | 4.8 | 4.8 | 0.00 | 0.00 | 0.00 | 68 | 1009.1 |
| 20260506125908 | 20 | 159 | 1.6 | 3.2 | 0.00 | 0.00 | 0.00 | 68 | 1009.0 |
| 20260506125406 | 20 | 207 | 4.8 | 4.8 | 0.00 | 0.00 | 0.00 | 68 | 1009.0 |
| 20260506124904 | 20 | 214 | 4.8 | 8.0 | 0.00 | 0.00 | 0.00 | 68 | 1009.0 |
| 20260506124401 | 20 | 198 | 4.8 | 4.8 | 0.00 | 0.00 | 0.00 | 68 | 1008.9 |
| 20260506123859 | 20 | 239 | 9.7 | 11.3 | 0.00 | 0.00 | 0.00 | 68 | 1008.8 |
| 20260506123357 | 19 | 231 | 4.8 | 4.8 | 0.00 | 0.00 | 0.00 | 69 | 1009.0 |
| 20260506122854 | 20 | 244 | 1.6 | 1.6 | 0.00 | 0.00 | 0.00 | 69 | 1009.0 |
| 20260506122350 | 19 | 210 | 0.0 | 1.6 | 0.00 | 0.00 | 0.00 | 70 | 1009.0 |
| 20260506121849 | 18 | 278 | 6.4 | 11.3 | 0.00 | 0.00 | 0.00 | 70 | 1009.0 |
| 20260506121346 | 18 | 230 | 3.2 | 4.8 | 0.00 | 0.00 | 0.00 | 71 | 1009.1 |
| 20260506120843 | 18 | 196 | 4.8 | 4.8 | 0.00 | 0.00 | 0.00 | 71 | 1009.3 |
| 20260506120340 | 18 | 219 | 1.6 | 1.6 | 0.00 | 0.00 | 0.00 | 71 | 1009.0 |
| 20260506115837 | 18 | 216 | 12.9 | 16.1 | 0.00 | 0.00 | 0.00 | 71 | 1009.3 |
| 20260506115336 | 18 | 198 | 3.2 | 4.8 | 0.00 | 0.00 | 0.00 | 72 | 1009.2 |
| 20260506114833 | 18 | 209 | 3.2 | 3.2 | 0.00 | 0.00 | 0.00 | 72 | 1009.5 |
| 20260506114331 | 18 | 206 | 1.6 | 3.2 | 0.00 | 0.00 | 0.00 | 73 | 1009.4 |
| 20260506113830 | 18 | 295 | 1.6 | 1.6 | 0.00 | 0.00 | 0.00 | 72 | 1009.3 |
| 20260506113326 | 18 | 175 | 4.8 | 8.0 | 0.00 | 0.00 | 0.00 | 72 | 1009.1 |
| 20260506112823 | 18 | 192 | 3.2 | 3.2 | 0.00 | 0.00 | 0.00 | 72 | 1009.0 |
| 20260506112320 | 18 | 289 | 1.6 | 4.8 | 0.00 | 0.00 | 0.00 | 73 | 1009.1 |
| 20260506111818 | 18 | 320 | 4.8 | 8.0 | 0.00 | 0.00 | 0.00 | 75 | 1009.4 |
| 20260506111316 | 18 | 209 | 3.2 | 4.8 | 0.00 | 0.00 | 0.00 | 75 | 1009.4 |
| 20260506110813 | 17 | 208 | 0.0 | 1.6 | 0.00 | 0.00 | 0.00 | 75 | 1009.4 |
| 20260506110310 | 17 | 76 | 3.2 | 4.8 | 0.00 | 0.00 | 0.00 | 75 | 1009.3 |
| 20260506105806 | 17 | 284 | 3.2 | 3.2 | 0.00 | 0.00 | 0.00 | 76 | 1009.2 |
| 20260506105305 | 17 | 187 | 3.2 | 3.2 | 0.00 | 0.00 | 0.00 | 76 | 1009.1 |
| 20260506104801 | 17 | 194 | 1.6 | 3.2 | 0.00 | 0.00 | 0.00 | 76 | 1008.9 |
| 20260506104258 | 17 | 233 | 1.6 | 3.2 | 0.00 | 0.00 | 0.00 | 77 | 1009.0 |
| 20260506103756 | 17 | 166 | 4.8 | 8.0 | 0.00 | 0.00 | 0.00 | 78 | 1009.0 |
| 20260506103253 | 17 | 196 | 1.6 | 1.6 | 0.00 | 0.00 | 0.00 | 78 | 1009.0 |
| 20260506102750 | 17 | 198 | 1.6 | 3.2 | 0.00 | 0.00 | 0.00 | 78 | 1009.2 |
| 20260506102248 | 17 | 211 | 0.0 | 1.6 | 0.00 | 0.00 | 0.00 | 78 | 1009.4 |
| 20260506101745 | 17 | 218 | 3.2 | 3.2 | 0.00 | 0.00 | 0.00 | 77 | 1009.2 |
| 20260506101241 | 17 | 206 | 1.6 | 3.2 | 0.00 | 0.00 | 0.00 | 77 | 1009.3 |
| 20260506100739 | 17 | 219 | 3.2 | 4.8 | 0.00 | 0.00 | 0.00 | 78 | 1009.2 |
| 20260506100237 | 17 | 191 | 4.8 | 8.0 | 0.00 | 0.00 | 0.00 | 78 | 1008.9 |
| 20260506095736 | 17 | 202 | 0.0 | 0.0 | 0.00 | 0.00 | 0.00 | 78 | 1008.9 |
| 20260506095232 | 17 | 231 | 6.4 | 9.7 | 0.00 | 0.00 | 0.00 | 77 | 1008.8 |
| 20260506094729 | 17 | 217 | 3.2 | 3.2 | 0.00 | 0.00 | 0.00 | 77 | 1009.0 |
| 20260506094227 | 17 | 204 | 4.8 | 4.8 | 0.00 | 0.00 | 0.00 | 77 | 1009.0 |
| 20260506093726 | 17 | 239 | 1.6 | 1.6 | 0.00 | 0.00 | 0.00 | 77 | 1008.8 |
| 20260506093222 | 17 | 222 | 1.6 | 1.6 | 0.00 | 0.00 | 0.00 | 77 | 1009.0 |
| 20260506092720 | 17 | 185 | 1.6 | 3.2 | 0.00 | 0.00 | 0.00 | 77 | 1008.9 |
| 20260506092218 | 17 | 196 | 4.8 | 4.8 | 0.00 | 0.00 | 0.00 | 77 | 1009.2 |
| 20260506091715 | 17 | 161 | 1.6 | 1.6 | 0.00 | 0.00 | 0.00 | 77 | 1009.1 |
| 20260506091212 | 17 | 205 | 1.6 | 3.2 | 0.00 | 0.00 | 0.00 | 76 | 1009.2 |
| 20260506090710 | 17 | 205 | 4.8 | 4.8 | 0.00 | 0.00 | 0.00 | 76 | 1009.1 |
| 20260506090206 | 17 | 224 | 1.6 | 1.6 | 0.00 | 0.00 | 0.00 | 76 | 1008.9 |
| 20260506085704 | 17 | 212 | 6.4 | 8.0 | 0.00 | 0.00 | 0.00 | 76 | 1009.0 |
| 20260506085159 | 18 | 191 | 4.8 | 8.0 | 0.00 | 0.00 | 0.00 | 76 | 1009.0 |
| 20260506084656 | 18 | 250 | 1.6 | 1.6 | 0.00 | 0.00 | 0.00 | 76 | 1009.2 |
| 20260506084153 | 18 | 202 | 3.2 | 3.2 | 0.00 | 0.00 | 0.00 | 76 | 1009.2 |
| 20260506083650 | 18 | 204 | 1.6 | 3.2 | 0.00 | 0.00 | 0.00 | 76 | 1009.3 |
| 20260506083148 | 18 | 190 | 6.4 | 8.0 | 0.00 | 0.00 | 0.00 | 75 | 1009.1 |
| 20260506082644 | 18 | 191 | 4.8 | 12.9 | 0.00 | 0.00 | 0.00 | 75 | 1009.2 |
| 20260506082139 | 18 | 210 | 3.2 | 3.2 | 0.00 | 0.00 | 0.00 | 75 | 1009.1 |
| 20260506081638 | 18 | 297 | 4.8 | 4.8 | 0.00 | 0.00 | 0.00 | 75 | 1009.3 |
| 20260506081135 | 18 | 264 | 3.2 | 3.2 | 0.00 | 0.00 | 0.00 | 75 | 1009.2 |
| 20260506080633 | 18 | 206 | 0.0 | 0.0 | 0.00 | 0.00 | 0.00 | 75 | 1009.3 |
| 20260506080129 | 18 | 158 | 1.6 | 3.2 | 0.00 | 0.00 | 0.00 | 75 | 1009.3 |
| 20260506073113 | 18 | 186 | 6.4 | 9.7 | 0.00 | 0.00 | 0.00 | 74 | 1009.3 |
| 20260506072609 | 18 | 191 | 3.2 | 3.2 | 0.00 | 0.00 | 0.00 | 74 | 1009.5 |
| 20260506072108 | 18 | 223 | 3.2 | 3.2 | 0.00 | 0.00 | 0.00 | 74 | 1009.4 |
| 20260506071605 | 18 | 173 | 4.8 | 8.0 | 0.00 | 0.00 | 0.00 | 73 | 1009.4 |
| 20260506071102 | 18 | 199 | 3.2 | 4.8 | 0.00 | 0.00 | 0.00 | 73 | 1009.4 |
| 20260506070559 | 18 | 187 | 0.0 | 1.6 | 0.00 | 0.00 | 0.00 | 73 | 1009.3 |
| 20260506062034 | 18 | 189 | 1.6 | 1.6 | 0.00 | 0.00 | 0.00 | 72 | 1009.7 |
| 20260506061529 | 18 | 195 | 0.0 | 0.0 | 0.00 | 0.00 | 0.00 | 72 | 1009.7 |
| 20260506061027 | 18 | 170 | 1.6 | 3.2 | 0.00 | 0.00 | 0.00 | 71 | 1009.7 |
| 20260506060526 | 18 | 214 | 3.2 | 4.8 | 0.00 | 0.00 | 0.00 | 72 | 1009.7 |
| 20260506050954 | 18 | 189 | 1.6 | 3.2 | 0.00 | 0.00 | 0.00 | 70 | 1010.2 |
| 20260506050452 | 18 | 209 | 0.0 | 1.6 | 0.00 | 0.00 | 0.00 | 70 | 1010.2 |
| 20260506044942 | 18 | 197 | 4.8 | 4.8 | 0.00 | 0.00 | 0.00 | 68 | 1010.5 |
| 20260506044441 | 18 | 189 | 3.2 | 3.2 | 0.00 | 0.00 | 0.00 | 68 | 1010.1 |
| 20260506043937 | 18 | 184 | 1.6 | 1.6 | 0.00 | 0.00 | 0.00 | 68 | 1010.0 |
| 20260506043434 | 19 | 221 | 1.6 | 1.6 | 0.00 | 0.00 | 0.00 | 67 | 1010.2 |
| 20260506042932 | 19 | 195 | 1.6 | 1.6 | 0.00 | 0.00 | 0.00 | 67 | 1010.3 |
| 20260506042431 | 19 | 222 | 1.6 | 1.6 | 0.00 | 0.00 | 0.00 | 67 | 1010.1 |
| 20260506041929 | 19 | 169 | 3.2 | 3.2 | 0.00 | 0.00 | 0.00 | 67 | 1010.2 |
| 20260506041427 | 19 | 185 | 1.6 | 1.6 | 0.00 | 0.00 | 0.00 | 66 | 1010.5 |
| 20260506040923 | 19 | 144 | 1.6 | 3.2 | 0.00 | 0.00 | 0.00 | 66 | 1010.2 |
| 20260506040421 | 19 | 168 | 1.6 | 1.6 | 0.00 | 0.00 | 0.00 | 65 | 1010.1 |
| 20260506035917 | 19 | 194 | 0.0 | 1.6 | 0.00 | 0.00 | 0.00 | 65 | 1010.4 |
| 20260506035415 | 19 | 251 | 1.6 | 3.2 | 0.00 | 0.00 | 0.00 | 64 | 1010.1 |
| 20260506034911 | 19 | 194 | 1.6 | 3.2 | 0.00 | 0.00 | 0.00 | 64 | 1010.2 |
| 20260506034408 | 20 | 171 | 3.2 | 3.2 | 0.00 | 0.00 | 0.00 | 64 | 1010.3 |
| 20260506033905 | 20 | 203 | 4.8 | 9.7 | 0.00 | 0.00 | 0.00 | 63 | 1010.2 |
| 20260506033403 | 20 | 215 | 6.4 | 8.0 | 0.00 | 0.00 | 0.00 | 63 | 1010.3 |
| 20260506032859 | 20 | 180 | 3.2 | 4.8 | 0.00 | 0.00 | 0.00 | 63 | 1010.1 |
| 20260506032356 | 20 | 203 | 1.6 | 3.2 | 0.00 | 0.00 | 0.00 | 63 | 1010.4 |
| 20260506031853 | 20 | 191 | 3.2 | 3.2 | 0.00 | 0.00 | 0.00 | 62 | 1010.4 |
| 20260506031350 | 20 | 195 | 6.4 | 9.7 | 0.00 | 0.00 | 0.00 | 61 | 1010.2 |
| 20260506030848 | 20 | 249 | 4.8 | 4.8 | 0.00 | 0.00 | 0.00 | 61 | 1010.3 |
| 20260506030346 | 20 | 211 | 4.8 | 4.8 | 0.00 | 0.00 | 0.00 | 61 | 1010.0 |
| 20260506025842 | 20 | 192 | 1.6 | 3.2 | 0.00 | 0.00 | 0.00 | 61 | 1010.0 |
| 20260506025338 | 20 | 202 | 1.6 | 3.2 | 0.00 | 0.00 | 0.00 | 60 | 1009.8 |
| 20260506024836 | 20 | 192 | 4.8 | 4.8 | 0.00 | 0.00 | 0.00 | 60 | 1009.9 |
| 20260506024333 | 20 | 224 | 0.0 | 1.6 | 0.00 | 0.00 | 0.00 | 60 | 1009.9 |
| 20260506023829 | 20 | 222 | 4.8 | 4.8 | 0.00 | 0.00 | 0.00 | 59 | 1010.1 |
| 20260506023326 | 20 | 264 | 4.8 | 4.8 | 0.00 | 0.00 | 0.00 | 59 | 1010.0 |
| 20260506022822 | 20 | 152 | 4.8 | 11.3 | 0.00 | 0.00 | 0.00 | 59 | 1010.0 |
| 20260506022320 | 20 | 212 | 4.8 | 8.0 | 0.00 | 0.00 | 0.00 | 59 | 1010.2 |
| 20260506021818 | 20 | 213 | 4.8 | 11.3 | 0.00 | 0.00 | 0.00 | 59 | 1009.8 |
| 20260506021315 | 21 | 207 | 1.6 | 1.6 | 0.00 | 0.00 | 0.00 | 58 | 1010.2 |
| 20260506020811 | 21 | 194 | 1.6 | 3.2 | 0.00 | 0.00 | 0.00 | 58 | 1010.3 |
| 20260506020309 | 21 | 172 | 4.8 | 4.8 | 0.00 | 0.00 | 0.00 | 58 | 1010.0 |
| 20260506015807 | 21 | 197 | 1.6 | 3.2 | 0.00 | 0.00 | 0.00 | 58 | 1010.1 |
| 20260506015306 | 21 | 197 | 3.2 | 3.2 | 0.00 | 0.00 | 0.00 | 58 | 1009.9 |
| 20260506014801 | 21 | 200 | 3.2 | 4.8 | 0.00 | 0.00 | 0.00 | 57 | 1009.9 |
| 20260506014258 | 21 | 231 | 3.2 | 3.2 | 0.00 | 0.00 | 0.00 | 56 | 1009.7 |
| 20260506013754 | 21 | 219 | 0.0 | 0.0 | 0.00 | 0.00 | 0.00 | 56 | 1009.8 |
| 20260506013252 | 22 | 217 | 1.6 | 1.6 | 0.00 | 0.00 | 0.00 | 55 | 1009.7 |
| 20260506012748 | 22 | 213 | 11.3 | 16.1 | 0.00 | 0.00 | 0.00 | 53 | 1009.6 |
| 20260506012245 | 22 | 187 | 1.6 | 1.6 | 0.00 | 0.00 | 0.00 | 51 | 1009.7 |
| 20260506011742 | 22 | 182 | 0.0 | 0.0 | 0.00 | 0.00 | 0.00 | 50 | 1009.3 |
| 20260506011238 | 22 | 235 | 6.4 | 9.7 | 0.00 | 0.00 | 0.00 | 50 | 1009.4 |
| 20260506010737 | 23 | 219 | 6.4 | 9.7 | 0.00 | 0.00 | 0.00 | 48 | 1009.0 |
| 20260506010234 | 23 | 145 | 6.4 | 11.3 | 0.00 | 0.00 | 0.00 | 47 | 1009.3 |
| 20260506005731 | 23 | 218 | 3.2 | 4.8 | 0.00 | 0.00 | 0.00 | 47 | 1009.3 |
| 20260506005228 | 23 | 53 | 4.8 | 11.3 | 0.00 | 0.00 | 0.00 | 46 | 1009.3 |
| 20260506004724 | 23 | 210 | 4.8 | 4.8 | 0.00 | 0.00 | 0.00 | 45 | 1009.0 |
| 20260506004222 | 23 | 203 | 3.2 | 3.2 | 0.00 | 0.00 | 0.00 | 44 | 1008.8 |
| 20260506003717 | 24 | 206 | 4.8 | 4.8 | 0.00 | 0.00 | 0.00 | 43 | 1008.8 |
| 20260506003214 | 24 | 120 | 8.0 | 12.9 | 0.00 | 0.00 | 0.00 | 43 | 1009.0 |
| 20260506002710 | 24 | 138 | 4.8 | 9.7 | 0.00 | 0.00 | 0.00 | 42 | 1008.7 |
| 20260506002206 | 24 | 232 | 6.4 | 11.3 | 0.00 | 0.00 | 0.00 | 41 | 1009.0 |
| 20260506001702 | 24 | 217 | 4.8 | 4.8 | 0.00 | 0.00 | 0.00 | 41 | 1008.6 |
| 20260506001200 | 24 | 169 | 4.8 | 4.8 | 0.00 | 0.00 | 0.00 | 41 | 1008.6 |